• In Portugal
  • List of Countries
  • For 7 days
  • Water Temperature
  • Satellite Maps
  • Weather Map
  • Weather Widgets
  • user-avatar
    Login

    Hourly Weather Farim

    Today, 23 August, Wednesday

    Time Temperature Precipitation Wind Pressure Humidity
    00:00 +26°C° 1.1 mm 2 mps 757 mmHg 94%
    01:00 +26°C° 1.1 mm 2 mps 757 mmHg 95%
    02:00 +26°C° 1.1 mm 2 mps 757 mmHg 95%
    03:00 +26°C° 0.4 mm 2 mps 756 mmHg 95%
    04:00 +26°C° 0.4 mm 1 mps 756 mmHg 96%
    05:00 +26°C° 0.4 mm 1 mps 756 mmHg 96%
    06:00 +26°C° 5.5 mm 1 mps 757 mmHg 96%
    07:00 +26°C° 5.5 mm 1 mps 757 mmHg 96%
    08:00 +27°C° 5.5 mm 1 mps 757 mmHg 95%
    09:00 +27°C° 11.6 mm 1 mps 757 mmHg 95%
    10:00 +26°C° 11.6 mm 1 mps 757 mmHg 96%
    11:00 +26°C° 11.6 mm 1 mps 757 mmHg 96%
    12:00 +27°C° 1.3 mm 1 mps 757 mmHg 94%
    13:00 +27°C° 1.3 mm 1 mps 757 mmHg 93%
    14:00 +27°C° 1.3 mm 1 mps 756 mmHg 92%
    15:00 +27°C° 0.7 mm 1 mps 756 mmHg 93%
    16:00 +27°C° 0.7 mm 1 mps 756 mmHg 94%
    17:00 +27°C° 0.7 mm 1 mps 756 mmHg 95%
    18:00 +26°C° 0.3 mm 1 mps 756 mmHg 95%
    19:00 +26°C° 0.3 mm 1 mps 757 mmHg 96%
    20:00 +26°C° 0.3 mm 1 mps 757 mmHg 96%
    21:00 +26°C° 0.1 mm 1 mps 757 mmHg 96%
    22:00 +26°C° 0.1 mm 1 mps 757 mmHg 96%
    23:00 +25°C° 0.1 mm 1 mps 758 mmHg 96%

    Tomorrow, 24 August, Thursday

    Time Temperature Precipitation Wind Pressure Humidity
    00:00 +25°C° 0.1 mm 1 mps 757 mmHg 96%
    01:00 +25°C° 0.1 mm 1 mps 757 mmHg 97%
    02:00 +25°C° 0.1 mm 1 mps 756 mmHg 97%
    03:00 +25°C° 0.1 mm 1 mps 756 mmHg 97%
    04:00 +25°C° 0.1 mm 1 mps 756 mmHg 97%
    05:00 +24°C° 0.1 mm 1 mps 756 mmHg 97%
    06:00 +25°C° 0.7 mm 2 mps 757 mmHg 96%
    07:00 +26°C° 0.7 mm 2 mps 757 mmHg 94%
    08:00 +27°C° 0.7 mm 3 mps 757 mmHg 92%
    09:00 +27°C° 0.5 mm 3 mps 757 mmHg 92%
    10:00 +27°C° 0.5 mm 3 mps 758 mmHg 91%
    11:00 +28°C° 0.5 mm 4 mps 758 mmHg 90%
    12:00 +28°C° 1 mm 4 mps 758 mmHg 90%
    13:00 +28°C° 1 mm 4 mps 757 mmHg 90%
    14:00 +28°C° 1 mm 4 mps 757 mmHg 90%
    15:00 +27°C° 0.8 mm 3 mps 757 mmHg 92%
    16:00 +27°C° 0.8 mm 3 mps 757 mmHg 93%
    17:00 +26°C° 0.8 mm 2 mps 757 mmHg 94%
    18:00 +26°C° 0.6 mm 2 mps 758 mmHg 95%
    19:00 +26°C° 0.6 mm 2 mps 758 mmHg 96%
    20:00 +26°C° 0.6 mm 2 mps 759 mmHg 96%
    21:00 +26°C° 0.5 mm 2 mps 759 mmHg 96%
    22:00 +26°C° 0.5 mm 2 mps 759 mmHg 96%
    23:00 +26°C° 0.5 mm 2 mps 760 mmHg 96%

    Day after tomorrow, 25 August, Friday

    Time Temperature Precipitation Wind Pressure Humidity
    00:00 +26°C° 0.2 mm 2 mps 759 mmHg 96%
    01:00 +25°C° 0.2 mm 2 mps 758 mmHg 96%
    02:00 +25°C° 0.2 mm 2 mps 758 mmHg 96%
    03:00 +25°C° 0 mm 2 mps 758 mmHg 96%
    04:00 +25°C° 0 mm 2 mps 758 mmHg 96%
    05:00 +25°C° 0 mm 1 mps 758 mmHg 97%
    06:00 +26°C° 0 mm 1 mps 758 mmHg 96%
    07:00 +26°C° 0 mm 2 mps 759 mmHg 95%
    08:00 +27°C° 0 mm 2 mps 759 mmHg 94%
    09:00 +28°C° 0.1 mm 2 mps 759 mmHg 90%
    10:00 +29°C° 0.1 mm 2 mps 759 mmHg 86%
    11:00 +30°C° 0.1 mm 3 mps 760 mmHg 82%
    12:00 +30°C° 0.4 mm 3 mps 759 mmHg 79%
    13:00 +31°C° 0.4 mm 3 mps 758 mmHg 77%
    14:00 +31°C° 0.4 mm 3 mps 758 mmHg 75%
    15:00 +30°C° 0.3 mm 3 mps 758 mmHg 79%
    16:00 +30°C° 0.3 mm 3 mps 758 mmHg 83%
    17:00 +29°C° 0.3 mm 2 mps 757 mmHg 88%
    18:00 +28°C° 0.2 mm 2 mps 758 mmHg 89%
    19:00 +28°C° 0.2 mm 3 mps 758 mmHg 90%
    20:00 +27°C° 0.2 mm 3 mps 758 mmHg 91%
    21:00 +27°C° 0 mm 3 mps 758 mmHg 92%
    22:00 +27°C° 0 mm 3 mps 758 mmHg 92%
    23:00 +27°C° 0 mm 3 mps 758 mmHg 93%

    26 August, Saturday

    Time Temperature Precipitation Wind Pressure Humidity
    00:00 +26°C° 0 mm 2 mps 758 mmHg 94%
    01:00 +26°C° 0 mm 2 mps 757 mmHg 95%
    02:00 +26°C° 0 mm 2 mps 757 mmHg 96%
    03:00 +26°C° 0 mm 2 mps 757 mmHg 96%
    04:00 +26°C° 0 mm 1 mps 757 mmHg 96%
    05:00 +26°C° 0 mm 1 mps 757 mmHg 96%
    06:00 +27°C° 0.1 mm 1 mps 758 mmHg 94%
    07:00 +27°C° 0.1 mm 2 mps 758 mmHg 93%
    08:00 +28°C° 0.1 mm 2 mps 758 mmHg 91%
    09:00 +28°C° 0.7 mm 3 mps 758 mmHg 88%
    10:00 +29°C° 0.7 mm 3 mps 758 mmHg 86%
    11:00 +30°C° 0.7 mm 4 mps 758 mmHg 83%
    12:00 +30°C° 2.4 mm 4 mps 757 mmHg 85%
    13:00 +29°C° 2.4 mm 3 mps 757 mmHg 87%
    14:00 +29°C° 2.4 mm 3 mps 756 mmHg 88%
    15:00 +28°C° 2.9 mm 3 mps 756 mmHg 90%
    16:00 +27°C° 2.9 mm 3 mps 756 mmHg 91%
    17:00 +27°C° 2.9 mm 4 mps 756 mmHg 92%
    18:00 +27°C° 2.3 mm 3 mps 757 mmHg 93%
    19:00 +26°C° 2.3 mm 3 mps 757 mmHg 94%
    20:00 +26°C° 2.3 mm 3 mps 758 mmHg 95%
    21:00 +26°C° 2.8 mm 3 mps 758 mmHg 94%
    22:00 +26°C° 2.8 mm 3 mps 758 mmHg 94%
    23:00 +26°C° 2.8 mm 3 mps 758 mmHg 94%

    27 August, Sunday

    Time Temperature Precipitation Wind Pressure Humidity
    00:00 +26°C° 2.3 mm 3 mps 758 mmHg 94%
    01:00 +26°C° 2.3 mm 3 mps 757 mmHg 94%
    02:00 +26°C° 2.3 mm 3 mps 757 mmHg 95%
    03:00 +26°C° 1.7 mm 2 mps 757 mmHg 95%
    04:00 +26°C° 1.7 mm 2 mps 757 mmHg 95%
    05:00 +25°C° 1.7 mm 2 mps 757 mmHg 95%
    06:00 +26°C° 1.3 mm 2 mps 758 mmHg 95%
    07:00 +26°C° 1.3 mm 2 mps 758 mmHg 95%
    08:00 +26°C° 1.3 mm 2 mps 758 mmHg 95%
    09:00 +26°C° 0.6 mm 2 mps 758 mmHg 93%
    10:00 +27°C° 0.6 mm 2 mps 758 mmHg 92%
    11:00 +27°C° 0.6 mm 3 mps 758 mmHg 90%
    12:00 +27°C° 0.8 mm 3 mps 758 mmHg 90%
    13:00 +28°C° 0.8 mm 3 mps 757 mmHg 90%
    14:00 +28°C° 0.8 mm 3 mps 757 mmHg 90%
    15:00 +27°C° 0.5 mm 2 mps 757 mmHg 92%
    16:00 +27°C° 0.5 mm 2 mps 757 mmHg 93%
    17:00 +27°C° 0.5 mm 2 mps 757 mmHg 94%
    18:00 +26°C° 0.2 mm 2 mps 758 mmHg 95%
    19:00 +26°C° 0.2 mm 1 mps 758 mmHg 96%
    20:00 +26°C° 0.2 mm 1 mps 759 mmHg 96%
    21:00 +26°C° 0.3 mm 1 mps 759 mmHg 96%
    22:00 +25°C° 0.3 mm 1 mps 759 mmHg 96%
    23:00 +25°C° 0.3 mm 1 mps 759 mmHg 97%

    28 August, Monday

    Time Temperature Precipitation Wind Pressure Humidity
    00:00 +25°C° 0.2 mm 1 mps 759 mmHg 97%
    01:00 +25°C° 0.2 mm 1 mps 758 mmHg 97%
    02:00 +25°C° 0.2 mm 1 mps 758 mmHg 97%
    03:00 +25°C° 0.1 mm 1 mps 758 mmHg 97%
    04:00 +25°C° 0.1 mm 1 mps 758 mmHg 97%
    05:00 +25°C° 0.1 mm 1 mps 758 mmHg 97%
    06:00 +26°C° 0.2 mm 1 mps 759 mmHg 96%
    07:00 +26°C° 0.2 mm 1 mps 759 mmHg 95%
    08:00 +27°C° 0.2 mm 1 mps 759 mmHg 94%
    09:00 +28°C° 0.3 mm 1 mps 759 mmHg 89%
    10:00 +29°C° 0.3 mm 1 mps 759 mmHg 85%
    11:00 +30°C° 0.3 mm 2 mps 759 mmHg 81%
    12:00 +31°C° 1.1 mm 2 mps 759 mmHg 79%
    13:00 +31°C° 1.1 mm 2 mps 758 mmHg 77%
    14:00 +31°C° 1.1 mm 2 mps 757 mmHg 75%
    15:00 +31°C° 0.7 mm 2 mps 758 mmHg 78%
    16:00 +30°C° 0.7 mm 2 mps 758 mmHg 80%
    17:00 +30°C° 0.7 mm 2 mps 758 mmHg 83%
    18:00 +29°C° 0 mm 2 mps 758 mmHg 86%
    19:00 +28°C° 0 mm 1 mps 759 mmHg 89%
    20:00 +27°C° 0 mm 1 mps 759 mmHg 93%
    21:00 +26°C° 0 mm 1 mps 759 mmHg 93%
    22:00 +26°C° 0 mm 1 mps 759 mmHg 94%
    23:00 +26°C° 0 mm 1 mps 759 mmHg 95%
    Show more